This is the latest recevied weather packets stored in our database for station/object W1REE. If no packets are shown the sender has not sent any weather packets the latest 10 day(s).
| Time | Temp. | Humidity | Pressure | Rain* | Wind** | Luminosity | Snow |
|---|---|---|---|---|---|---|---|
| 1777469663 | 3.89° C | 84% | 1023 hPa | 0 mm | - | 33 W/m² | - |
| 1777469359 | 3.89° C | 85% | 1023 hPa | 0 mm | - | 46 W/m² | - |
| 1777469055 | 3.89° C | 85% | 1023.1 hPa | 0 mm | - | 38 W/m² | - |
| 1777468750 | 4.44° C | 84% | 1022.9 hPa | 0 mm | - | 41 W/m² | - |
| 1777468446 | 3.89° C | 85% | 1023 hPa | 0 mm | - | 67 W/m² | - |
| 1777468143 | 3.89° C | 85% | 1023.1 hPa | 0 mm | - | 37 W/m² | - |
| 1777467839 | 3.89° C | 85% | 1023 hPa | 0 mm | - | 31 W/m² | - |
| 1777467534 | 3.89° C | 85% | 1023.1 hPa | 0 mm | - | 19 W/m² | - |
| 1777467229 | 3.89° C | 86% | 1022.9 hPa | 0 mm | - | 16 W/m² | - |
| 1777466926 | 3.89° C | 86% | 1022.9 hPa | 0 mm | - | 16 W/m² | - |
| 1777466624 | 3.89° C | 86% | 1023.1 hPa | 0 mm | - | 13 W/m² | - |
| 1777466321 | 3.89° C | 86% | 1023.1 hPa | 0 mm | - | 13 W/m² | - |
| 1777466017 | 3.89° C | 86% | 1022.9 hPa | 0 mm | - | 9 W/m² | - |
| 1777465713 | 3.89° C | 86% | 1022.9 hPa | 0 mm | - | 7 W/m² | - |
| 1777465410 | 3.89° C | 86% | 1022.9 hPa | 0 mm | - | 4 W/m² | - |
| 1777465108 | 3.89° C | 86% | 1022.8 hPa | 0 mm | - | 5 W/m² | - |
| 1777464804 | 3.33° C | 87% | 1023 hPa | 0 mm | - | 3 W/m² | - |
| 1777464499 | 3.33° C | 87% | 1022.8 hPa | 0 mm | - | 3 W/m² | - |
| 1777464196 | 3.33° C | 87% | 1022.8 hPa | 0 mm | - | 2 W/m² | - |
| 1777463895 | 3.33° C | 87% | 1022.6 hPa | 0 mm | - | 1 W/m² | - |
| 1777463592 | 3.33° C | 87% | 1022.6 hPa | 0 mm | - | 1 W/m² | - |
| 1777463286 | 3.33° C | 87% | 1022.6 hPa | 0 mm | - | 0 W/m² | - |
| 1777462983 | 3.33° C | 87% | 1022.5 hPa | 0 mm | - | 0 W/m² | - |
| 1777462678 | 3.33° C | 87% | 1022.5 hPa | 0 mm | - | 0 W/m² | - |
| 1777462374 | 3.33° C | 86% | 1022.3 hPa | 0 mm | - | 0 W/m² | - |
* Rain latest hour (hover to see other rain measurements)
** Current wind speed in m/s (hover to see current wind gust speed)